| time (UTC) | temp F | wind direction | speed MPH | gust MPH | rain 1hr in | rain 24hr in | rain mn in | humidity % | barometer mb |
| 20260831221519 | 85 | 216 | 1.0 | 7.0 | 0.00 | 0.00 | 0.00 | 42 | 1008.0 |
| 20260831220052 | 86 | 198 | 2.0 | 6.0 | 0.00 | 0.00 | 0.00 | 38 | 1007.9 |
| 20260831214509 | 85 | 236 | 2.0 | 6.0 | 0.00 | 0.00 | 0.00 | 38 | 1008.0 |
| 20260831213105 | 85 | 251 | 2.0 | 5.0 | 0.00 | 0.00 | 0.00 | 35 | 1007.9 |
| 20260831211525 | 87 | 269 | 2.0 | 6.0 | 0.00 | 0.00 | 0.00 | 36 | 1007.9 |
| 20260831210017 | 89 | 290 | 2.0 | 6.0 | 0.00 | 0.00 | 0.00 | 38 | 1008.0 |
| 20260831204555 | 89 | 273 | 2.0 | 7.0 | 0.00 | 0.00 | 0.00 | 38 | 1008.0 |
| 20260831203034 | 87 | 276 | 3.0 | 7.0 | 0.00 | 0.00 | 0.00 | 30 | 1008.1 |
| 20260831201517 | 87 | 203 | 3.0 | 8.0 | 0.00 | 0.00 | 0.00 | 38 | 1008.2 |
| 20260831200038 | 89 | 252 | 3.0 | 9.0 | 0.00 | 0.00 | 0.00 | 39 | 1008.2 |
| 20260831194523 | 88 | 259 | 3.0 | 10.0 | 0.00 | 0.00 | 0.00 | 37 | 1008.2 |
| 20260831193011 | 89 | 248 | 3.0 | 6.0 | 0.00 | 0.00 | 0.00 | 41 | 1008.2 |
| 20260831191535 | 88 | 257 | 1.0 | 6.0 | 0.00 | 0.00 | 0.00 | 44 | 1008.4 |
| 20260831190012 | 88 | 308 | 2.0 | 6.0 | 0.00 | 0.00 | 0.00 | 46 | 1008.4 |
| 20260831184504 | 87 | 350 | 2.0 | 6.0 | 0.00 | 0.00 | 0.00 | 47 | 1008.4 |
| 20260831183010 | 85 | 37 | 1.0 | 5.0 | 0.00 | 0.00 | 0.00 | 47 | 1008.3 |
| 20260831181509 | 86 | 57 | 2.0 | 5.0 | 0.00 | 0.00 | 0.00 | 47 | 1008.3 |
| 20260831180037 | 84 | 298 | 2.0 | 6.0 | 0.00 | 0.00 | 0.00 | 50 | 1008.4 |
| 20260831174550 | 84 | 330 | 1.0 | 5.0 | 0.00 | 0.00 | 0.00 | 48 | 1008.4 |
| 20260831173049 | 83 | 360 | 1.0 | 5.0 | 0.00 | 0.00 | 0.00 | 45 | 1008.6 |
| 20260831171526 | 82 | 311 | 1.0 | 5.0 | 0.00 | 0.00 | 0.00 | 49 | 1008.7 |
| 20260831170044 | 81 | 335 | 1.0 | 6.0 | 0.00 | 0.00 | 0.00 | 51 | 1008.8 |
| 20260831164505 | 79 | 290 | 3.0 | 6.0 | 0.00 | 0.00 | 0.00 | 49 | 1008.8 |
| 20260831163033 | 78 | 326 | 3.0 | 7.0 | 0.00 | 0.00 | 0.00 | 56 | 1008.7 |
| 20260831161550 | 74 | 345 | 2.0 | 7.0 | 0.00 | 0.00 | 0.00 | 60 | 1008.9 |
| 20260831160002 | 77 | 335 | 5.0 | 9.0 | 0.00 | 0.00 | 0.00 | 59 | 1008.9 |
| 20260831154531 | 75 | 285 | 4.0 | 8.0 | 0.00 | 0.00 | 0.00 | 63 | 1008.7 |
| 20260831153049 | 75 | 331 | 5.0 | 11.0 | 0.00 | 0.00 | 0.00 | 66 | 1008.7 |
| 20260831151542 | 74 | 274 | 5.0 | 10.0 | 0.00 | 0.00 | 0.00 | 65 | 1008.5 |
| 20260831150046 | 72 | 354 | 5.0 | 12.0 | 0.00 | 0.00 | 0.00 | 70 | 1008.5 |
| 20260831144557 | 72 | 330 | 4.0 | 9.0 | 0.00 | 0.00 | 0.00 | 71 | 1008.6 |
| 20260831143059 | 71 | 340 | 4.0 | 9.0 | 0.00 | 0.00 | 0.00 | 74 | 1008.5 |
| 20260831141525 | 70 | 324 | 3.0 | 7.0 | 0.00 | 0.00 | 0.00 | 78 | 1008.5 |
| 20260831140042 | 69 | 307 | 3.0 | 9.0 | 0.00 | 0.00 | 0.00 | 78 | 1008.4 |
| 20260831134530 | 69 | 288 | 3.0 | 6.0 | 0.00 | 0.00 | 0.00 | 77 | 1008.0 |
| 20260831133014 | 69 | 331 | 4.0 | 11.0 | 0.00 | 0.00 | 0.00 | 76 | 1007.5 |
| 20260831131516 | 68 | 316 | 5.0 | 10.0 | 0.00 | 0.00 | 0.00 | 78 | 1007.0 |
| 20260831130016 | 67 | 296 | 4.0 | 10.0 | 0.00 | 0.00 | 0.00 | 79 | 1007.1 |
| 20260831124523 | 66 | 300 | 4.0 | 9.0 | 0.00 | 0.00 | 0.00 | 79 | 1007.1 |
| 20260831123043 | 65 | 292 | 3.0 | 7.0 | 0.00 | 0.00 | 0.00 | 80 | 1006.9 |
| 20260831121523 | 65 | 259 | 2.0 | 7.0 | 0.00 | 0.00 | 0.00 | 81 | 1006.6 |
| 20260831120032 | 64 | 289 | 2.0 | 5.0 | 0.00 | 0.00 | 0.00 | 82 | 1006.3 |
| 20260831114518 | 64 | 295 | 1.0 | 5.0 | 0.00 | 0.00 | 0.00 | 80 | 1005.8 |
| 20260831113032 | 65 | 307 | 2.0 | 6.0 | 0.00 | 0.00 | 0.00 | 79 | 1005.6 |
| 20260831111525 | 66 | 329 | 2.0 | 7.0 | 0.00 | 0.00 | 0.00 | 76 | 1005.3 |
| 20260831110058 | 67 | 291 | 3.0 | 7.0 | 0.00 | 0.00 | 0.00 | 75 | 1005.1 |
| 20260831104527 | 68 | 288 | 3.0 | 7.0 | 0.00 | 0.00 | 0.00 | 75 | 1004.8 |
| 20260831103027 | 69 | 287 | 3.0 | 8.0 | 0.00 | 0.00 | 0.00 | 76 | 1004.6 |
| 20260831101512 | 69 | 238 | 4.0 | 10.0 | 0.00 | 0.00 | 0.00 | 76 | 1004.4 |
| 20260831100012 | 70 | 309 | 4.0 | 11.0 | 0.00 | 0.00 | 0.00 | 79 | 1004.3 |
| 20260831094530 | 70 | 294 | 4.0 | 10.0 | 0.00 | 0.00 | 0.00 | 82 | 1004.0 |
| 20260831093051 | 70 | 252 | 5.0 | 10.0 | 0.00 | 0.00 | 0.00 | 83 | 1003.9 |
| 20260831091602 | 70 | 287 | 4.0 | 11.0 | 0.00 | 0.00 | 0.00 | 86 | 1003.9 |
| 20260831090049 | 70 | 283 | 4.0 | 8.0 | 0.00 | 0.00 | 0.00 | 90 | 1003.6 |
| 20260831084606 | 70 | 268 | 2.0 | 7.0 | 0.00 | 0.00 | 0.00 | 91 | 1003.7 |
| 20260831083019 | 0 | 0.0 | 0.0 | 0.00 | 0.00 | 0.00 | 1003.5 | ||
| 20260831081557 | 0 | 0.0 | 0.0 | 0.00 | 0.00 | 0.00 | 1003.4 | ||
| 20260831080005 | 0 | 0.0 | 0.0 | 0.00 | 0.00 | 0.00 | 1003.1 | ||
| 20260831074533 | 0 | 0.0 | 0.0 | 0.00 | 0.00 | 0.00 | 1003.0 | ||
| 20260831073019 | 0 | 0.0 | 0.0 | 0.00 | 0.00 | 0.00 | 1002.9 | ||
| 20260831071548 | 0 | 0.0 | 0.0 | 0.00 | 0.00 | 0.00 | 1002.8 | ||
| 20260831070020 | 0 | 0.0 | 0.0 | 0.00 | 0.00 | 0.00 | 1002.6 | ||
| 20260831064612 | 0 | 0.0 | 0.0 | 0.00 | 0.00 | 0.00 | 1002.5 | ||
| 20260831063026 | 0 | 0.0 | 0.0 | 0.00 | 0.00 | 0.00 | 1002.3 | ||
| 20260831061550 | 0 | 0.0 | 0.0 | 0.00 | 0.00 | 0.00 | 1002.0 | ||
| 20260831060012 | 0 | 0.0 | 0.0 | 0.00 | 0.00 | 0.00 | 1001.9 | ||
| 20260831054547 | 0 | 0.0 | 0.0 | 0.00 | 0.00 | 0.00 | 1001.7 | ||
| 20260831053047 | 0 | 0.0 | 0.0 | 0.00 | 0.00 | 0.00 | 1001.5 | ||
| 20260831051619 | 0 | 0.0 | 0.0 | 0.00 | 0.00 | 0.00 | 1001.4 | ||
| 20260831050026 | 74 | 216 | 3.0 | 6.0 | 0.00 | 0.00 | 0.00 | 93 | 1001.4 |
| 20260831034541 | 72 | 226 | 0.0 | 2.0 | 0.00 | 0.00 | 0.00 | 93 | 1001.8 |
| 20260831033050 | 73 | 236 | 0.0 | 3.0 | 0.00 | 0.00 | 0.00 | 93 | 1001.8 |
| 20260831031511 | 72 | 228 | 1.0 | 3.0 | 0.00 | 0.00 | 0.00 | 92 | 1001.8 |
| 20260831030020 | 73 | 228 | 1.0 | 2.0 | 0.00 | 0.00 | 0.00 | 92 | 1001.6 |
| 20260831024633 | 73 | 228 | 0.0 | 3.0 | 0.00 | 0.00 | 0.00 | 91 | 1001.4 |
| 20260831023042 | 74 | 248 | 1.0 | 2.0 | 0.00 | 0.00 | 0.00 | 91 | 1001.4 |
| 20260831021558 | 75 | 224 | 0.0 | 3.0 | 0.00 | 0.00 | 0.00 | 90 | 1000.9 |
| 20260831020003 | 77 | 144 | 2.0 | 4.0 | 0.00 | 0.00 | 0.00 | 89 | 1000.8 |
| 20260831014542 | 76 | 216 | 2.0 | 4.0 | 0.00 | 0.00 | 0.00 | 88 | 1000.6 |
| 20260831013102 | 77 | 117 | 0.0 | 2.0 | 0.00 | 0.00 | 0.00 | 89 | 1000.7 |
| 20260831011601 | 78 | 117 | 0.0 | 2.0 | 0.00 | 0.00 | 0.00 | 86 | 1000.8 |
| 20260831010122 | 79 | 117 | 1.0 | 4.0 | 0.00 | 0.00 | 0.00 | 84 | 1000.8 |
| 20260831004551 | 80 | 127 | 1.0 | 3.0 | 0.00 | 0.00 | 0.00 | 83 | 1000.9 |
| 20260831003053 | 81 | 120 | 2.0 | 5.0 | 0.00 | 0.00 | 0.00 | 81 | 1001.1 |
| 20260831001554 | 82 | 94 | 2.0 | 6.0 | 0.00 | 0.00 | 0.00 | 79 | 1001.2 |
| 20260831000105 | 83 | 116 | 2.0 | 6.0 | 0.00 | 0.00 | 0.00 | 78 | 1001.2 |
| 20260830234534 | 83 | 93 | 3.0 | 6.0 | 0.00 | 0.00 | 0.00 | 80 | 1001.1 |
| 20260830233007 | 82 | 92 | 3.0 | 6.0 | 0.00 | 0.00 | 0.00 | 80 | 1000.9 |
| 20260830231526 | 83 | 70 | 2.0 | 8.0 | 0.00 | 0.00 | 0.00 | 78 | 1001.1 |
| 20260830230049 | 85 | 56 | 3.0 | 8.0 | 0.00 | 0.00 | 0.00 | 75 | 1001.2 |
| 20260830224525 | 86 | 81 | 4.0 | 8.0 | 0.00 | 0.00 | 0.00 | 74 | 1001.2 |
| 20260830223018 | 85 | 40 | 3.0 | 7.0 | 0.00 | 0.00 | 0.00 | 75 | 1001.4 |